Wind_Speed
4 3 2 3 4 5 7 8 9 10 12 13 14 15 17 18 20 21 21 22 23 22 24 26 27 29 30 30 31 31 31 32 32 31 30 29 28 27 27 25 24 23 23 24 25 25 25 24 24
2 2 2 1 0 1 3 5 6 7 9 10 12 13 14 15 16 15 15 15 16 17 19 21 23 25 27 29 30 31 32 34 35 34 33 32 31 31 30 29 28 27 27 27 28 29 29 29 28
7 6 6 4 4 3 2 1 2 4 5 7 8 9 9 10 11 12 13 14 15 16 19 21 22 24 26 27 29 30 31 33 34 34 34 33 33 33 33 32 31 31 31 31 31 31 32 33 33
11 13 10 9 9 7 6 5 4 4 4 6 7 8 9 9 11 13 14 16 17 18 20 22 25 26 28 29 31 32 32 33 34 36 36 37 36 36 36 35 35 34 34 34 33 34 34 36 36
12 12 9 10 8 8 8 7 6 6 6 6 7 9 9 11 12 14 17 19 21 23 24 26 28 30 31 33 34 35 35 36 37 38 39 40 40 40 39 39 38 38 38 37 37 37 37 37 38
11 8 8 7 6 6 6 6 5 6 7 9 10 11 12 14 15 17 19 21 23 25 26 28 30 32 34 35 37 38 40 41 42 43 43 43 43 44 43 43 42 41 41 41 40 40 40 39 40
9 7 7 6 6 7 7 7 7 7 7 8 10 11 13 15 16 18 19 20 22 24 26 28 30 32 34 36 37 38 39 40 42 43 45 47 48 48 48 48 47 46 45 44 44 43 43 43 43
9 7 7 7 8 8 7 7 8 10 11 13 14 16 17 18 19 21 23 24 26 27 29 31 33 36 38 40 42 43 43 43 43 43 43 44 47 49 50 50 50 50 49 49 48 47 47 46 46
10 9 8 8 8 6 6 7 8 11 13 15 16 17 18 20 22 24 26 28 30 31 33 35 36 38 40 42 44 46 47 48 49 49 49 48 47 48 49 49 50 50 51 51 51 51 50 49 49
11 10 9 8 7 7 7 7 8 10 11 13 15 17 20 23 25 27 29 32 34 36 38 40 42 43 45 47 48 50 51 52 53 52 52 53 52 52 51 51 51 51 52 52 52 52 53 53 52
10 9 8 8 10 10 10 10 9 9 11 15 18 20 23 25 27 30 33 35 38 41 44 46 49 51 52 54 55 56 57 58 58 58 57 56 55 55 55 55 54 53 53 53 53 53 54 55 54
9 9 9 9 9 9 9 10 12 14 16 18 20 23 26 29 32 36 39 42 45 48 51 53 56 57 59 61 62 63 63 64 64 64 63 62 61 60 58 58 58 58 57 55 55 55 55 56 55
8 8 7 7 7 8 10 12 15 17 18 20 22 26 30 34 38 42 46 49 52 55 59 61 63 65 66 68 70 71 71 70 70 70 70 69 67 66 65 63 61 61 61 60 58 57 57 57 57
7 7 7 8 8 9 11 14 15 17 18 22 26 32 38 43 48 52 56 59 62 64 66 68 69 70 72 74 76 77 77 76 75 75 75 75 74 72 70 69 67 66 64 64 63 62 61 60 59
9 10 10 10 11 12 12 14 16 19 22 27 34 40 46 52 57 61 64 67 69 71 72 74 76 79 80 80 81 82 83 82 81 79 79 79 79 79 76 73 72 71 70 68 67 66 65 65 64
9 9 10 11 12 13 14 16 20 24 30 35 41 46 51 57 62 67 71 74 76 78 78 80 81 82 82 83 83 82 82 83 83 83 82 81 81 82 81 79 76 75 74 72 71 70 69 69 68
9 11 12 13 16 17 21 24 27 32 37 42 46 51 57 63 68 72 75 78 80 81 82 83 84 84 84 83 82 82 83 82 80 79 80 83 85 84 84 84 82 79 77 76 74 72 71 71 71
12 14 15 17 20 23 27 30 34 37 42 47 51 57 63 69 73 75 78 81 83 85 86 86 84 82 79 75 73 72 70 66 64 63 65 69 77 86 90 87 85 84 82 80 79 77 74 72 72
14 15 16 18 21 25 29 33 37 40 45 50 55 61 66 72 75 78 81 82 83 85 86 83 76 70 66 66 65 59 50 44 43 46 49 51 56 66 79 92 92 89 87 85 83 82 79 76 74
15 16 17 20 24 29 34 36 39 43 49 53 59 64 70 75 78 79 81 83 85 85 83 74 64 60 61 61 56 49 43 42 42 42 43 45 47 51 58 70 87 94 93 90 88 85 83 81 78
17 19 22 25 29 33 39 41 43 47 52 57 63 68 73 77 79 80 82 84 84 81 72 61 55 55 57 57 53 49 46 47 48 46 44 45 46 47 48 54 67 82 94 96 94 90 87 83 81
20 23 26 29 32 35 40 45 45 49 55 62 67 71 75 77 79 81 83 81 78 72 63 55 53 54 57 56 53 52 51 52 53 50 46 45 45 46 47 47 51 64 78 90 96 96 92 88 84
22 25 28 31 34 37 41 46 50 55 60 65 70 73 76 78 81 82 79 75 71 64 56 53 54 57 58 59 57 55 55 55 56 54 50 46 44 44 44 43 43 48 60 73 86 94 95 92 89
24 28 31 33 36 39 44 49 55 59 65 70 73 76 78 80 81 78 74 69 64 58 54 55 58 61 62 62 60 57 55 56 56 55 52 48 44 41 41 40 39 39 44 53 64 76 86 91 90
25 29 33 38 41 43 47 51 58 64 69 72 75 77 79 81 78 73 68 63 58 56 56 59 62 64 63 62 60 57 54 53 53 53 51 49 45 40 37 37 36 35 36 40 47 54 64 76 84
23 27 32 37 42 45 49 54 60 66 71 75 76 78 81 80 74 69 64 60 58 59 61 63 64 64 61 58 55 52 50 48 48 49 49 48 46 41 36 34 34 33 33 34 38 43 50 58 69
26 31 35 38 44 50 53 58 64 69 74 75 76 78 81 77 71 65 62 61 63 65 65 64 61 58 55 52 49 48 47 46 45 45 46 46 45 42 38 34 33 32 33 33 34 37 41 47 53
29 33 37 40 46 53 58 63 67 72 74 75 76 79 79 74 67 64 63 65 66 67 64 60 55 52 50 49 49 48 48 47 46 46 46 46 45 42 40 38 35 33 33 34 34 34 36 39 42
31 35 38 43 48 54 61 66 70 74 75 75 78 79 75 69 65 65 66 68 67 63 58 53 50 49 48 48 48 48 48 48 48 48 48 47 46 44 41 40 39 36 35 35 35 34 34 36 37
32 36 41 46 51 55 63 69 74 75 74 76 77 76 71 66 65 66 68 67 62 57 53 50 49 49 50 50 50 50 50 51 52 52 50 48 45 43 41 40 41 42 40 38 37 35 34 35 37
Wind_Direction
283 253 260 276 274 263 259 249 249 255 262 265 266 266 267 267 267 269 268 266 264 265 269 269 267 266 266 266 266 265 265 263 264 265 267 267 266 265 265 264 264 262 260 256 252 247 244 240 239
69 67 47 22 268 285 267 258 255 268 275 276 275 276 276 278 280 279 278 273 270 270 271 271 270 269 270 271 271 270 269 268 267 265 264 264 264 264 264 263 263 262 260 257 253 248 244 241 240
67 71 65 80 88 94 71 34 317 311 308 308 309 310 304 302 300 295 288 280 278 277 275 274 272 270 269 268 268 268 268 269 268 266 263 262 261 262 262 261 260 259 258 256 253 249 245 242 240
68 70 66 73 73 74 73 64 50 36 16 356 340 332 325 314 304 300 297 294 291 287 282 280 279 277 275 273 271 270 268 267 267 267 265 263 261 260 259 259 258 257 255 253 252 250 246 243 242
68 70 66 64 63 59 56 47 30 17 2 347 331 321 313 307 301 297 296 294 292 289 287 286 284 283 280 277 274 272 270 268 267 266 266 265 263 261 258 257 256 255 253 251 250 249 247 244 242
71 64 59 52 45 41 35 26 10 357 343 333 327 322 315 310 306 301 297 294 292 292 291 290 289 287 284 281 278 275 272 269 267 266 266 265 264 263 261 259 257 255 254 252 249 248 247 244 242
69 59 60 53 47 40 35 23 9 2 354 344 338 332 327 321 316 312 308 304 301 298 296 294 291 289 287 285 283 279 276 274 271 267 265 264 263 262 261 260 259 257 255 253 251 249 248 246 244
65 63 63 54 52 48 35 20 5 356 353 352 349 344 338 331 325 320 315 309 304 300 296 294 292 290 288 286 284 281 279 276 274 272 269 266 264 263 261 259 258 257 255 253 251 249 248 247 246
57 50 46 45 47 45 30 16 3 356 357 356 353 348 341 334 328 322 317 312 308 304 300 297 294 291 289 288 286 284 282 280 277 274 271 268 265 263 261 260 258 254 253 252 251 249 248 247 246
43 42 46 54 57 50 39 30 17 6 358 350 344 339 334 329 324 319 315 310 306 303 299 296 293 291 288 286 285 283 281 280 278 276 273 271 267 263 261 259 258 256 253 250 249 250 249 247 246
47 54 56 55 54 50 44 36 24 9 350 344 340 335 331 327 322 318 314 310 306 303 300 297 294 291 289 286 284 281 279 277 276 274 273 270 268 266 262 258 256 254 254 252 249 247 246 246 245
59 60 53 48 45 39 29 15 2 354 348 345 341 335 331 326 322 318 314 310 306 303 300 297 294 291 289 287 285 282 280 277 275 273 272 270 267 265 263 261 258 254 252 251 250 249 247 246 245
61 57 48 37 25 16 7 357 348 341 339 335 330 327 323 320 317 314 311 309 307 304 302 299 297 295 292 290 288 286 284 281 277 274 272 269 267 264 261 260 258 256 253 251 249 248 248 248 247
40 27 17 6 358 351 346 342 338 333 328 324 323 323 322 321 319 317 314 312 309 306 303 301 299 298 296 294 293 292 289 286 281 277 273 270 267 264 261 258 256 254 253 252 250 247 246 247 248
15 3 355 347 342 340 339 333 330 327 324 322 323 324 323 321 318 316 313 310 308 305 304 302 301 299 298 296 295 293 290 287 283 278 273 269 266 264 261 258 255 253 250 250 249 248 246 245 245
6 353 344 339 336 335 331 329 326 324 322 322 321 321 319 317 315 313 311 309 308 308 306 305 303 301 300 297 294 290 286 283 280 276 271 267 263 261 259 257 254 252 250 248 247 247 246 245 245
351 344 341 336 333 331 328 327 325 322 319 318 317 316 315 314 314 313 312 312 311 310 308 307 306 303 300 297 295 294 292 290 286 280 273 265 260 258 256 255 254 252 251 249 248 247 246 245 245
345 344 344 339 334 331 328 325 323 321 318 317 317 316 315 314 314 315 314 314 314 313 312 310 307 303 300 300 302 302 300 298 295 291 284 274 264 257 254 252 251 251 250 249 250 249 247 245 243
339 339 339 335 332 329 327 325 324 321 318 317 316 316 316 316 316 317 317 316 316 315 313 310 305 304 306 308 307 304 301 300 298 296 293 286 277 267 259 253 250 249 248 247 247 248 247 245 243
327 324 325 328 330 329 326 325 324 319 317 318 317 317 318 317 318 318 318 317 316 314 310 307 306 309 311 312 309 303 301 302 302 299 295 292 289 283 271 260 253 248 246 245 245 244 244 243 242
320 321 324 327 328 326 323 322 322 319 321 321 320 319 318 318 320 320 319 318 316 313 309 308 309 312 314 313 307 299 298 302 304 303 299 297 296 294 290 274 258 250 246 244 243 242 241 241 240
326 324 324 324 326 326 323 321 324 324 324 323 322 321 321 322 322 321 320 320 316 313 312 312 314 315 315 314 308 299 293 294 298 301 299 297 297 297 294 289 274 257 248 244 242 241 240 239 238
325 323 323 324 326 325 325 326 327 326 326 325 325 325 325 324 323 323 323 321 318 316 315 315 316 316 316 314 309 303 296 292 293 296 297 297 297 297 295 292 286 271 256 245 240 239 239 238 237
326 324 325 326 327 330 330 330 328 329 329 329 328 328 327 325 325 326 325 322 321 321 319 318 317 316 315 314 311 306 300 296 293 293 294 294 295 295 293 290 286 278 266 254 245 239 238 237 237
329 328 327 328 330 333 331 331 331 332 332 332 331 329 328 328 329 328 326 325 324 324 321 319 317 316 315 313 310 308 304 300 297 294 292 291 290 289 289 286 281 275 267 258 250 243 238 237 237
329 327 329 331 330 331 333 335 334 335 335 334 332 331 331 332 331 330 328 326 326 324 322 321 319 318 316 315 314 314 312 308 305 301 297 292 288 285 282 281 276 269 262 256 250 244 239 237 237
329 330 332 332 332 334 335 335 335 337 336 335 334 333 334 334 333 331 328 328 327 326 325 324 323 322 323 324 324 322 320 318 314 311 307 301 293 285 277 272 270 265 258 252 248 244 240 237 237
331 333 335 336 336 335 335 338 339 338 337 336 336 336 337 335 333 331 329 330 329 328 327 328 330 331 331 329 327 325 323 320 318 316 312 307 301 291 278 267 262 259 254 249 247 244 239 234 232
336 336 337 336 337 338 337 339 340 339 338 337 338 339 338 336 333 331 331 332 331 330 332 335 335 335 333 332 329 327 324 321 318 316 315 310 303 296 285 269 257 252 248 244 244 244 240 234 230
335 336 336 337 338 338 338 339 341 340 339 339 340 340 338 336 334 333 334 333 333 335 337 338 337 336 335 334 332 329 326 323 320 317 314 310 304 297 289 276 260 249 244 241 240 239 239 237 233
Height
5862 5862 5862 5863 5864 5864 5864 5864 5865 5865 5865 5866 5865 5866 5865 5865 5867 5869 5867 5865 5865 5865 5864 5863 5863 5862 5861 5861 5859 5858 5857 5857 5857 5856 5856 5855 5854 5854 5853 5853 5853 5853 5853 5853 5853 5854 5855 5855 5855
5861 5862 5863 5864 5863 5864 5864 5864 5864 5864 5864 5864 5863 5863 5863 5863 5863 5863 5862 5862 5861 5859 5858 5858 5857 5857 5856 5856 5855 5854 5853 5852 5851 5850 5850 5849 5848 5847 5847 5846 5846 5847 5847 5847 5847 5848 5849 5850 5851
5862 5862 5864 5863 5863 5864 5864 5863 5864 5864 5863 5863 5863 5863 5862 5862 5861 5860 5859 5858 5857 5856 5855 5854 5852 5851 5850 5849 5849 5848 5848 5847 5846 5844 5843 5842 5841 5841 5840 5840 5840 5840 5840 5841 5841 5842 5842 5844 5845
5864 5865 5866 5865 5864 5864 5864 5864 5863 5864 5864 5863 5863 5862 5860 5860 5859 5858 5857 5856 5855 5853 5852 5850 5849 5848 5846 5845 5844 5843 5842 5840 5839 5838 5837 5836 5834 5833 5833 5833 5832 5832 5833 5834 5834 5835 5835 5836 5838
5865 5866 5867 5865 5866 5866 5865 5865 5864 5864 5863 5863 5863 5862 5860 5859 5858 5856 5855 5853 5851 5849 5848 5846 5844 5843 5841 5840 5838 5837 5835 5833 5831 5830 5829 5828 5827 5826 5825 5824 5824 5824 5825 5825 5826 5827 5828 5829 5830
5867 5867 5866 5866 5866 5866 5865 5864 5864 5863 5862 5862 5861 5860 5858 5857 5856 5854 5852 5850 5848 5846 5843 5841 5838 5836 5834 5832 5830 5828 5826 5824 5823 5821 5820 5819 5818 5818 5816 5815 5815 5815 5815 5816 5816 5817 5819 5820 5822
5869 5868 5866 5866 5866 5865 5865 5864 5863 5862 5862 5861 5860 5859 5857 5855 5854 5852 5850 5848 5845 5842 5839 5836 5833 5830 5827 5824 5821 5819 5817 5814 5812 5810 5809 5808 5806 5806 5806 5805 5805 5805 5806 5806 5807 5808 5809 5810 5812
5869 5869 5867 5867 5867 5866 5865 5864 5862 5861 5860 5860 5859 5858 5856 5854 5852 5849 5846 5844 5841 5838 5835 5831 5828 5824 5820 5817 5813 5810 5808 5805 5802 5800 5798 5797 5795 5795 5794 5793 5794 5795 5795 5796 5796 5797 5799 5800 5802
5871 5872 5870 5870 5869 5867 5865 5865 5864 5861 5860 5859 5858 5856 5854 5852 5849 5846 5843 5840 5836 5833 5829 5825 5821 5817 5813 5809 5805 5801 5797 5794 5792 5789 5787 5786 5784 5783 5782 5781 5781 5781 5783 5784 5785 5786 5788 5789 5791
5873 5872 5871 5870 5869 5868 5867 5866 5865 5863 5861 5860 5858 5855 5853 5850 5846 5843 5839 5835 5830 5826 5822 5817 5812 5808 5803 5799 5794 5790 5786 5782 5779 5777 5775 5773 5772 5771 5770 5769 5769 5769 5770 5771 5772 5774 5776 5778 5780
5872 5871 5870 5869 5869 5868 5868 5866 5865 5863 5861 5859 5856 5853 5850 5846 5842 5838 5834 5829 5824 5819 5814 5808 5802 5797 5792 5787 5782 5777 5773 5769 5765 5762 5760 5758 5757 5757 5757 5756 5756 5756 5757 5758 5759 5761 5762 5765 5767
5873 5872 5872 5870 5869 5868 5867 5865 5863 5861 5859 5856 5852 5849 5845 5841 5837 5833 5828 5822 5816 5810 5804 5798 5791 5784 5778 5772 5767 5762 5757 5754 5750 5747 5745 5742 5741 5740 5740 5741 5742 5742 5743 5744 5745 5747 5749 5751 5753
5874 5873 5872 5870 5869 5867 5866 5864 5862 5859 5856 5853 5849 5845 5841 5836 5832 5826 5820 5814 5807 5800 5792 5785 5777 5771 5764 5756 5750 5744 5739 5735 5732 5729 5727 5725 5723 5722 5722 5723 5724 5725 5727 5728 5730 5732 5735 5737 5739
5874 5873 5872 5871 5870 5867 5865 5863 5861 5857 5854 5851 5846 5842 5836 5830 5824 5817 5810 5802 5794 5786 5778 5769 5761 5753 5745 5737 5730 5723 5718 5713 5709 5706 5705 5704 5704 5703 5703 5703 5704 5706 5709 5711 5713 5715 5718 5722 5725
5875 5874 5873 5871 5869 5867 5865 5862 5858 5855 5851 5847 5841 5835 5829 5822 5815 5808 5800 5791 5782 5773 5763 5754 5745 5735 5726 5718 5709 5702 5694 5688 5684 5680 5678 5678 5679 5681 5682 5682 5683 5686 5688 5691 5695 5698 5701 5705 5708
5875 5874 5872 5870 5867 5865 5864 5860 5856 5851 5847 5841 5835 5829 5822 5814 5806 5797 5787 5777 5766 5756 5746 5736 5726 5716 5705 5695 5685 5677 5669 5662 5656 5653 5650 5650 5651 5654 5656 5658 5660 5664 5667 5670 5674 5678 5683 5687 5691
5874 5872 5870 5868 5865 5862 5860 5856 5852 5847 5841 5835 5829 5822 5814 5805 5796 5785 5774 5762 5751 5739 5728 5716 5705 5694 5683 5671 5660 5649 5640 5632 5626 5623 5622 5622 5622 5624 5627 5631 5635 5640 5644 5648 5653 5657 5662 5668 5673
5873 5870 5868 5866 5863 5860 5856 5852 5848 5842 5836 5829 5821 5813 5803 5794 5783 5771 5759 5746 5733 5719 5706 5694 5683 5671 5660 5650 5640 5630 5619 5610 5602 5595 5592 5592 5593 5596 5598 5602 5607 5613 5619 5625 5630 5636 5641 5648 5654
5871 5869 5867 5864 5860 5857 5853 5848 5843 5837 5829 5821 5812 5803 5793 5781 5768 5756 5742 5728 5715 5701 5687 5673 5659 5648 5639 5632 5623 5614 5605 5597 5589 5582 5575 5571 5568 5567 5568 5573 5578 5584 5591 5598 5605 5612 5620 5627 5634
5869 5867 5865 5862 5858 5853 5848 5843 5838 5830 5822 5814 5804 5793 5781 5768 5755 5741 5727 5713 5699 5685 5669 5654 5642 5633 5625 5616 5607 5599 5592 5585 5578 5571 5564 5557 5552 5548 5544 5542 5547 5554 5562 5570 5578 5586 5596 5605 5613
5867 5864 5861 5858 5854 5849 5843 5838 5833 5823 5815 5805 5793 5781 5768 5754 5741 5728 5713 5698 5683 5666 5650 5639 5630 5621 5612 5603 5594 5586 5578 5571 5564 5557 5550 5543 5536 5529 5524 5520 5518 5522 5530 5540 5549 5559 5570 5582 5591
5864 5861 5858 5854 5850 5844 5838 5831 5825 5815 5805 5794 5782 5769 5755 5741 5727 5712 5697 5682 5664 5648 5635 5625 5617 5608 5599 5589 5580 5572 5564 5557 5550 5543 5536 5529 5521 5514 5507 5501 5497 5496 5499 5509 5520 5531 5543 5556 5568
5861 5858 5854 5850 5845 5840 5832 5824 5817 5807 5796 5784 5771 5756 5742 5728 5713 5697 5681 5664 5647 5634 5623 5614 5605 5595 5585 5575 5565 5557 5548 5541 5534 5527 5521 5515 5508 5501 5493 5486 5481 5477 5478 5482 5491 5503 5516 5529 5543
5859 5855 5849 5845 5839 5834 5825 5818 5808 5798 5787 5774 5759 5745 5730 5715 5699 5682 5666 5648 5634 5622 5612 5603 5593 5582 5571 5560 5549 5540 5532 5524 5517 5511 5505 5500 5494 5488 5481 5474 5468 5465 5464 5465 5470 5479 5491 5504 5518
5855 5851 5845 5838 5832 5828 5820 5812 5803 5790 5776 5762 5748 5733 5717 5702 5685 5668 5651 5636 5623 5613 5603 5591 5580 5568 5556 5544 5533 5523 5515 5507 5500 5493 5488 5483 5479 5475 5470 5463 5458 5455 5453 5454 5458 5464 5472 5482 5494
5852 5848 5843 5836 5829 5823 5814 5804 5794 5779 5765 5751 5737 5721 5705 5688 5671 5654 5638 5625 5614 5603 5591 5579 5566 5553 5541 5529 5518 5508 5500 5492 5485 5478 5472 5467 5463 5460 5458 5453 5449 5446 5445 5445 5447 5452 5458 5465 5474
5848 5843 5838 5831 5822 5814 5806 5797 5783 5769 5756 5742 5727 5711 5694 5677 5660 5643 5629 5616 5604 5591 5577 5564 5552 5539 5527 5517 5508 5498 5489 5481 5473 5465 5458 5452 5447 5444 5443 5441 5439 5437 5436 5436 5438 5441 5446 5452 5459
5845 5839 5834 5826 5818 5808 5799 5788 5775 5761 5747 5732 5717 5701 5683 5665 5649 5634 5620 5608 5593 5578 5564 5551 5539 5529 5519 5509 5499 5490 5480 5471 5462 5454 5446 5439 5433 5429 5427 5427 5427 5426 5426 5426 5428 5431 5435 5440 5446
5841 5835 5828 5822 5813 5802 5791 5783 5768 5753 5737 5723 5707 5690 5672 5656 5641 5626 5612 5598 5582 5568 5555 5543 5532 5522 5512 5502 5491 5481 5472 5462 5452 5443 5434 5426 5419 5414 5411 5410 5412 5414 5415 5416 5418 5421 5425 5429 5435
5837 5831 5824 5817 5806 5796 5785 5776 5759 5744 5728 5713 5697 5680 5662 5647 5633 5619 5604 5588 5573 5561 5549 5538 5527 5516 5505 5494 5483 5472 5462 5451 5441 5431 5421 5413 5405 5399 5395 5394 5396 5399 5402 5405 5408 5411 5415 5419 5424